Location: Newark
(46.2167°N, 5.8664°E)
Time: 23:08:41
(UTC+00:00)

ISS - Visible Passes

Search period start: 17 September 2019 00:00
Search period end: 27 September 2019 00:00
Orbit: 411 x 421 km, 51.6° (Epoch: 18 September)

Date Brightness Start Highest point End Pass type
(mag) Time Alt. Az. Time Alt. Az. Time Alt. Az.
18 Sep -1.6 19:24:07 10° SSW 19:24:55 15° S 19:24:55 15° S visible
19 Sep -2.1 18:36:25 10° S 18:38:38 17° SE 18:39:16 16° ESE visible
19 Sep -1.0 20:11:40 10° WSW 20:12:12 14° WSW 20:12:12 14° WSW visible
20 Sep -3.7 19:23:14 10° SW 19:26:18 61° S 19:26:18 61° S visible
21 Sep -3.2 18:34:58 10° SW 18:38:05 39° SE 18:40:10 18° E visible
21 Sep -1.4 20:11:34 10° W 20:13:05 23° W 20:13:05 23° W visible
22 Sep -3.4 19:22:56 10° WSW 19:26:13 62° NNW 19:26:46 51° NNE visible
23 Sep -3.8 18:34:20 10° WSW 18:37:40 90° NNW 18:40:20 15° ENE visible
23 Sep -1.3 20:11:37 10° WNW 20:13:13 22° NW 20:13:13 22° NW visible
24 Sep -2.6 19:22:52 10° W 19:26:01 38° NNW 19:26:40 34° NNE visible
25 Sep -3.0 18:34:08 10° W 18:37:22 48° NNW 18:40:02 14° NE visible
25 Sep -1.1 20:11:34 10° WNW 20:12:55 20° NW 20:12:55 20° NW visible
26 Sep -2.4 19:22:50 10° WNW 19:25:52 31° N 19:26:13 30° N visible
